Home   Weather   Oberwart   Past weeks

Flag for Austria Past Weather in Oberwart, Burgenland, Austria — Yesterday and Last 2 Weeks

Now
53 °F

Cool.


Feels Like: 52 °F
Forecast: 32 / 59 °F
Wind: 5 mph from North

Location: Eisenstadt

Current Time: Apr 29, 2017 at 1:34:54 pm

Latest Report: Apr 29, 2017 at 1:00 pm


Visibility: N/A

Pressure: 30.05 "Hg

Humidity: 45%

Dew Point: 32 °F

Location of OberwartLocation

Past Weather in Oberwart — Graph

°F

Oberwart Temperature Yesterday

Maximum temperature yesterday: 45 °F (at 4:00 pm)
Minimum temperature yesterday: 41 °F (at 9:00 am)
Average temperature yesterday: 43 °F

High & Low Weather Summary for the Past Weeks

 TemperatureHumidityPressure
High75 °F (Apr 25, 3:00 pm)95% (Apr 19, 9:00 pm)30.48 "Hg (Apr 19, 9:00 pm)
Low31 °F (Apr 21, 6:00 am)30% (Apr 25, 2:00 pm)29.65 "Hg (Apr 25, 7:00 pm)
Average47 °F68%30.01 "Hg
* Reported Apr 14 12:00 pm — Apr 29 12:00 pm, Oberwart, Weather by CustomWeather, © 2017

Note: Actual official high and low records may vary slightly from our data, if they occured in-between our weather recording intervals... More about our weather records

Advertising

Oberwart Weather History for the Previous 24 Hours

Scroll right to see more
 ConditionsComfort  
Time TempWeatherWind HumidityBarometerVisibility
12:00 pm
Sat, Apr 29
53 °FCool.3 mph50%30.07 "HgN/A
11:00 am52 °FSunny.5 mph55%30.08 "Hg7 mi
10:00 am50 °FCool.6 mph60%30.08 "HgN/A
9:00 am47 °FCool.5 mph66%30.09 "HgN/A
8:00 am43 °FQuite cool.1 mph76%30.09 "HgN/A
7:00 am41 °FQuite cool.3 mph77%30.07 "HgN/A
6:00 am39 °FSunny.2 mph82%30.05 "Hg6 mi
5:00 am39 °FClear.1 mph82%30.02 "Hg6 mi
4:00 am41 °FClear.3 mph76%30.00 "Hg6 mi
3:00 am42 °FQuite cool.7 mph75%29.97 "HgN/A
2:00 am42 °FClear.7 mph75%29.96 "Hg6 mi
1:00 am42 °FQuite cool.9 mph75%29.95 "HgN/A
12:00 am42 °FQuite cool.7 mph75%29.95 "HgN/A
11:00 pm
Fri, Apr 28
43 °FOvercast.8 mph73%29.91 "Hg9 mi
10:00 pm43 °FQuite cool.8 mph73%29.89 "HgN/A
9:00 pm43 °FQuite cool.6 mph75%29.87 "HgN/A
8:00 pm43 °FOvercast.10 mph77%29.83 "Hg12 mi
7:00 pm44 °FOvercast.6 mph80%29.81 "Hg12 mi
6:00 pm44 °FQuite cool.5 mph82%29.81 "HgN/A
5:00 pm44 °FOvercast.3 mph83%29.81 "Hg12 mi
4:00 pm45 °FCool.2 mph84%29.78 "HgN/A
3:00 pm44 °FFog.3 mph89%29.78 "HgN/A
2:00 pm44 °FLight rain. Overcast.1 mph90%29.78 "Hg5 mi
1:00 pm44 °FSprinkles. Cloudy.2 mph86%29.78 "HgN/A
Weather by CustomWeather, © 2017

See weather overviewHow to use our weather pages